Probability
6 6 3 3 0 0 0 0 0 0 0 0 0 0 0 0 0 0 0 0 0 0 0 0 0 0 0 0 0 0 0 0 0 0 0 0 3 6
6 6 6 3 0 0 0 0 0 0 0 0 0 0 0 0 0 0 0 0 0 0 0 0 0 0 0 0 0 0 0 0 0 0 0 0 0 0
6 6 6 6 3 3 0 0 0 0 0 0 0 0 0 0 0 0 0 0 0 0 0 0 0 0 0 0 0 0 0 0 0 0 0 0 0 0
6 3 3 6 6 3 0 0 0 0 0 0 0 0 0 0 0 0 0 0 0 0 0 0 0 0 0 0 0 0 0 0 0 0 0 0 0 0
3 3 3 0 0 3 3 0 0 0 0 0 0 0 0 0 0 0 0 0 0 0 0 0 0 0 0 0 0 0 0 0 0 0 0 0 0 0
6 6 0 0 0 0 0 3 0 0 0 0 0 0 0 0 0 0 0 0 0 0 0 0 0 0 0 0 0 0 0 0 0 0 0 0 0 0
3 0 0 0 0 0 0 0 0 0 0 0 0 0 0 0 0 0 0 0 0 0 0 0 0 0 0 0 0 0 0 0 0 0 0 0 0 0
3 3 3 0 0 0 0 0 0 0 0 0 0 0 0 0 0 0 0 0 0 0 0 0 0 0 0 0 0 0 0 0 0 0 0 0 0 0
3 3 3 3 3 3 0 0 0 0 0 0 0 0 0 0 0 0 0 0 0 0 0 0 0 0 0 0 0 0 0 0 0 0 0 0 0 0
3 3 3 3 3 3 3 3 0 0 0 0 0 0 0 0 0 0 0 0 0 0 0 0 0 0 0 0 0 0 0 0 0 0 0 0 0 0
0 3 3 3 3 0 0 3 3 3 0 0 0 0 0 0 0 0 0 0 0 0 0 0 0 0 0 0 0 0 0 0 0 0 0 0 0 0
0 0 0 0 3 0 0 0 0 3 3 3 0 0 0 0 0 0 0 0 0 0 0 0 0 0 0 0 0 0 0 0 0 0 0 0 0 0
0 0 0 0 0 0 0 0 0 0 0 0 0 0 0 0 0 0 0 0 0 0 0 0 0 0 0 0 0 0 0 0 0 0 0 0 0 0
0 0 0 0 0 0 0 0 0 0 0 0 0 0 0 0 0 0 0 0 0 0 0 0 0 0 0 0 0 0 0 0 0 0 0 0 0 0
0 0 0 0 0 0 0 0 0 0 0 0 0 0 0 0 0 0 0 0 0 0 0 0 0 0 0 0 0 0 0 0 0 0 0 0 0 0
0 0 0 0 0 0 0 0 0 0 0 0 0 0 0 0 0 0 0 0 0 0 0 0 0 0 0 0 0 0 0 0 0 0 0 0 0 0
0 0 0 0 0 0 0 0 0 0 0 0 0 0 0 0 0 0 0 0 0 0 0 0 0 0 0 0 0 0 0 0 0 0 0 0 0 0
0 0 0 0 0 0 0 0 0 0 0 0 0 0 0 0 0 0 0 0 0 0 0 0 0 0 0 0 0 0 0 0 0 0 0 0 0 0
0 0 0 0 0 0 0 0 0 0 0 0 0 0 0 0 0 0 0 0 0 0 0 0 0 0 0 0 0 0 0 0 0 0 0 0 0 0
0 0 0 0 0 0 0 0 0 0 0 0 0 0 0 0 0 0 0 0 0 0 0 0 0 0 0 0 0 0 0 0 0 0 0 0 0 0
0 0 0 0 0 0 0 0 0 0 0 0 0 0 0 0 0 0 0 0 0 0 0 0 0 0 0 0 0 0 0 0 0 0 0 0 0 0
0 0 0 0 0 0 0 0 0 0 0 0 0 0 0 0 0 0 0 0 0 0 0 0 0 0 0 0 0 0 0 0 0 0 0 0 0 0
0 0 0 0 0 0 0 0 0 0 0 0 0 0 0 0 0 0 0 0 0 0 0 0 0 0 0 0 0 0 0 0 0 0 0 0 0 0
Height
5877 5878 5878 5879 5879 5879 5879 5879 5880 5879 5879 5879 5878 5877 5876 5876 5875 5875 5874 5873 5873 5872 5871 5870 5869 5868 5867 5866 5865 5863 5862 5861 5860 5858 5857 5856 5854 5853
5873 5873 5873 5874 5874 5874 5874 5874 5874 5874 5873 5873 5873 5872 5871 5871 5870 5869 5868 5867 5866 5865 5864 5863 5862 5861 5860 5859 5857 5856 5854 5853 5852 5850 5849 5847 5846 5845
5868 5868 5868 5868 5868 5868 5868 5868 5867 5867 5867 5867 5866 5866 5865 5864 5864 5863 5862 5861 5859 5858 5857 5856 5854 5853 5852 5850 5849 5847 5846 5844 5843 5841 5840 5839 5837 5836
5862 5862 5862 5862 5862 5862 5861 5861 5861 5860 5860 5860 5859 5858 5858 5857 5856 5856 5854 5853 5852 5851 5849 5848 5846 5845 5843 5842 5840 5838 5836 5835 5833 5832 5830 5829 5828 5826
5856 5856 5855 5855 5855 5855 5855 5855 5854 5854 5853 5853 5852 5851 5850 5850 5849 5848 5847 5846 5844 5843 5841 5840 5838 5837 5835 5833 5831 5829 5827 5825 5823 5822 5820 5819 5817 5815
5850 5849 5849 5849 5849 5849 5848 5848 5847 5847 5846 5845 5845 5844 5843 5842 5841 5840 5839 5838 5836 5835 5833 5832 5830 5828 5826 5824 5822 5820 5817 5815 5813 5811 5810 5808 5806 5804
5843 5843 5842 5842 5842 5842 5841 5841 5841 5840 5839 5838 5838 5837 5836 5834 5833 5832 5831 5829 5827 5826 5825 5823 5821 5819 5816 5814 5811 5809 5807 5805 5802 5800 5798 5796 5794 5792
5837 5836 5836 5835 5835 5835 5835 5834 5833 5832 5832 5831 5830 5829 5828 5826 5825 5824 5822 5821 5819 5818 5815 5813 5811 5809 5806 5803 5801 5798 5796 5793 5791 5788 5786 5783 5781 5779
5831 5830 5830 5829 5828 5828 5827 5826 5826 5825 5824 5823 5822 5821 5819 5818 5817 5815 5813 5811 5809 5807 5805 5802 5800 5797 5795 5792 5789 5787 5784 5781 5778 5776 5773 5770 5767 5764
5826 5825 5824 5823 5822 5821 5820 5819 5818 5818 5817 5815 5814 5813 5811 5809 5807 5806 5804 5802 5799 5797 5794 5792 5789 5786 5783 5780 5777 5774 5771 5768 5765 5762 5759 5756 5753 5749
5821 5820 5819 5817 5816 5815 5814 5813 5812 5810 5809 5807 5806 5804 5802 5800 5798 5796 5794 5791 5789 5786 5783 5780 5777 5774 5770 5767 5764 5761 5757 5754 5751 5747 5744 5741 5738 5735
5816 5815 5813 5812 5810 5809 5807 5806 5804 5803 5801 5799 5797 5796 5793 5791 5789 5786 5784 5781 5778 5775 5771 5768 5765 5761 5758 5754 5750 5746 5743 5739 5736 5733 5729 5726 5723 5720
5810 5809 5807 5806 5804 5802 5801 5799 5797 5795 5793 5791 5789 5786 5784 5781 5779 5776 5773 5770 5766 5763 5759 5756 5752 5748 5744 5740 5736 5732 5728 5725 5722 5718 5714 5711 5708 5705
5804 5802 5800 5799 5797 5795 5794 5792 5789 5787 5785 5782 5780 5777 5774 5771 5768 5764 5761 5758 5754 5750 5746 5742 5738 5734 5730 5726 5723 5718 5714 5711 5707 5704 5700 5696 5693 5690
5797 5795 5793 5791 5790 5788 5786 5783 5781 5779 5776 5773 5770 5767 5764 5760 5756 5753 5749 5745 5741 5737 5733 5729 5725 5721 5717 5713 5709 5705 5701 5697 5693 5689 5686 5682 5678 5675
5791 5789 5787 5784 5782 5780 5778 5775 5772 5770 5767 5763 5760 5757 5753 5749 5745 5741 5738 5733 5729 5725 5721 5716 5712 5708 5703 5699 5695 5691 5687 5683 5680 5676 5672 5668 5664 5660
5783 5781 5779 5777 5774 5772 5769 5766 5763 5760 5757 5753 5750 5746 5742 5739 5735 5731 5727 5722 5718 5714 5709 5704 5700 5695 5691 5687 5683 5678 5674 5670 5666 5662 5659 5654 5650 5647
5776 5774 5771 5769 5766 5763 5760 5757 5754 5751 5747 5744 5740 5736 5732 5728 5724 5720 5716 5711 5707 5702 5698 5693 5689 5684 5679 5674 5671 5667 5662 5658 5654 5649 5646 5642 5638 5634
5768 5766 5763 5760 5758 5755 5751 5748 5745 5741 5738 5734 5730 5726 5722 5718 5714 5709 5705 5700 5696 5691 5686 5682 5678 5673 5669 5664 5659 5655 5651 5647 5642 5638 5634 5630 5627 5623
5761 5758 5755 5752 5749 5746 5743 5739 5735 5732 5728 5724 5720 5716 5712 5708 5704 5699 5695 5690 5685 5681 5676 5671 5667 5663 5659 5655 5650 5645 5641 5637 5632 5628 5625 5621 5617 5614
5752 5749 5746 5743 5740 5737 5733 5730 5726 5722 5718 5714 5710 5706 5702 5698 5693 5689 5684 5679 5675 5670 5666 5662 5657 5653 5648 5644 5640 5635 5631 5627 5623 5619 5616 5613 5609 5605
5743 5740 5737 5734 5731 5727 5723 5720 5716 5712 5708 5704 5700 5696 5691 5687 5683 5678 5674 5669 5665 5661 5656 5652 5648 5644 5639 5635 5631 5627 5622 5618 5614 5611 5607 5604 5601 5598
5734 5731 5728 5725 5721 5717 5714 5710 5706 5701 5697 5693 5689 5685 5681 5677 5673 5668 5664 5660 5656 5652 5648 5643 5639 5635 5631 5627 5623 5619 5615 5611 5607 5604 5600 5597 5594 5591
Wind_Speed
18 18 18 18 18 18 18 19 19 20 19 20 20 20 20 20 21 22 22 22 23 23 24 24 25 25 25 25 26 27 28 28 29 29 30 30 31 31
19 19 20 20 20 20 20 20 20 20 21 22 22 22 22 22 23 24 24 24 25 25 25 26 27 28 28 29 29 30 31 31 32 32 32 33 33 34
20 21 21 21 21 21 22 22 22 22 22 23 24 24 25 24 24 25 26 27 27 28 28 29 29 29 30 31 31 32 32 33 34 34 34 34 35 36
22 22 23 23 23 24 24 24 23 23 23 24 25 25 26 27 27 27 28 28 29 29 29 30 30 31 31 32 33 34 34 34 35 35 36 36 37 38
23 23 23 24 24 24 25 26 26 25 25 26 27 28 28 28 29 29 29 29 29 29 29 30 30 31 31 32 33 34 34 35 36 37 38 39 39 39
22 23 24 25 25 26 26 26 26 26 26 26 27 28 28 29 28 28 28 29 29 29 30 31 32 32 33 34 35 36 36 37 38 38 39 40 42 43
22 24 25 25 26 26 26 26 26 27 27 27 27 28 29 29 29 29 30 31 31 32 33 33 33 34 36 36 37 38 39 40 41 41 42 43 44 45
21 23 23 24 25 26 26 26 26 26 27 28 28 29 29 29 29 30 32 33 33 34 35 36 37 37 37 38 39 39 41 42 43 44 44 45 46 47
21 21 22 23 23 24 26 26 26 27 28 28 28 29 30 30 30 31 32 34 35 36 37 38 38 39 40 41 42 43 43 44 45 46 47 48 48 48
19 20 21 23 23 24 24 25 26 27 28 27 27 28 29 30 31 32 34 35 36 36 37 38 39 40 42 43 44 45 45 46 47 47 48 49 49 49
19 20 21 22 21 22 23 24 25 25 25 26 28 29 30 32 33 34 35 37 38 39 41 41 41 42 44 44 45 47 47 47 48 48 48 48 49 49
21 21 21 20 20 21 22 23 23 24 25 27 29 30 32 33 33 35 37 38 39 40 41 42 43 44 45 46 47 47 48 48 47 48 48 48 49 50
21 21 21 21 22 22 23 24 25 26 27 29 31 32 33 34 35 36 38 39 40 41 42 44 45 46 46 46 47 47 47 47 47 48 48 49 49 50
23 23 23 23 24 24 25 26 27 28 29 30 32 33 35 36 37 38 39 40 41 42 43 44 45 45 46 46 45 45 46 47 47 47 48 48 49 49
24 24 25 25 26 27 27 28 29 30 31 31 33 34 36 36 37 38 39 40 41 42 43 43 44 45 44 44 44 45 45 45 46 46 46 46 46 46
24 25 26 26 27 28 28 29 30 32 32 33 34 34 35 35 36 36 38 39 40 41 42 42 42 42 42 43 43 43 43 43 43 44 44 45 45 44
25 26 26 27 28 29 30 30 31 32 32 33 33 34 34 35 35 36 37 38 39 39 40 41 41 41 41 41 41 41 41 42 42 43 43 43 44 43
26 26 27 28 29 29 30 31 31 32 33 33 34 34 34 35 35 36 37 38 38 39 39 39 39 40 40 39 39 40 40 41 41 41 41 40 40 40
26 27 28 28 29 30 31 31 32 33 33 34 34 34 34 35 36 36 37 38 38 38 38 38 38 38 38 38 38 39 38 38 38 38 38 37 37 37
27 28 29 30 30 31 32 32 33 33 34 34 35 35 35 36 36 37 37 37 37 37 37 37 36 36 36 36 36 37 36 36 35 34 34 33 33 32
29 29 30 30 31 32 32 33 34 34 35 35 35 36 36 36 36 37 37 37 37 36 36 35 35 35 35 35 35 34 33 32 32 31 31 30 30 29
30 31 31 31 32 33 34 35 35 36 36 36 36 36 36 37 37 36 36 35 35 35 34 34 33 33 33 32 32 31 30 30 29 29 29 28 27 26
30 31 31 32 33 34 35 36 36 36 36 36 36 36 36 36 36 35 34 34 34 33 32 32 31 31 31 30 29 29 29 28 28 28 28 27 26 26
Wind_Direction
257 258 259 258 260 263 266 267 267 264 261 263 266 268 268 268 268 269 269 269 270 271 270 270 271 272 272 274 274 274 274 275 276 276 276 276 275 275
257 258 259 260 261 264 266 267 267 265 263 264 266 268 270 269 270 269 268 270 271 271 272 272 272 273 274 275 276 276 276 276 276 277 277 276 276 275
259 260 260 260 262 264 266 268 267 267 266 265 265 267 268 269 269 269 269 271 272 271 271 273 273 274 274 276 277 277 278 277 277 276 276 276 276 275
261 261 262 262 262 264 267 268 270 270 267 265 266 268 268 269 271 271 272 274 273 273 274 274 274 275 276 277 277 277 277 277 277 276 275 276 277 277
262 262 263 264 263 264 265 268 270 271 269 267 266 269 270 271 271 271 273 274 274 274 276 276 276 278 278 279 279 279 277 278 277 276 276 276 276 276
265 264 264 264 263 263 265 268 270 271 271 268 268 269 271 274 275 274 274 274 275 275 276 277 279 279 279 280 280 279 278 278 278 277 277 277 276 276
266 267 267 267 266 265 267 268 271 272 272 270 270 270 274 276 276 275 274 274 274 276 277 278 279 280 280 279 279 278 278 278 278 278 278 278 277 276
270 270 269 268 269 269 269 270 272 273 273 271 270 271 273 273 275 275 274 275 276 277 278 280 280 280 280 280 280 280 280 280 280 279 279 279 278 276
277 273 271 270 269 270 270 272 273 272 272 272 272 273 273 273 275 276 277 277 278 279 280 280 279 279 279 280 280 280 280 280 280 279 279 278 277 277
281 278 275 272 274 275 276 274 273 273 273 273 274 274 274 275 277 278 279 279 280 281 281 281 281 281 282 282 282 282 281 281 281 281 280 279 279 278
282 282 280 280 279 277 277 278 278 277 276 275 277 278 279 279 278 279 279 281 281 281 281 281 282 282 283 284 284 283 283 282 282 282 281 281 280 279
284 285 285 283 282 282 281 282 282 282 282 283 282 282 283 283 283 283 284 283 283 283 283 283 284 285 284 285 284 284 284 284 283 282 282 281 281 280
283 282 283 281 281 281 282 284 285 286 286 286 286 285 286 287 286 286 286 286 286 286 286 287 286 286 286 286 286 286 286 285 284 283 282 281 281 281
284 282 281 281 281 282 283 285 285 286 287 287 287 288 288 288 287 286 286 286 286 287 288 288 288 288 288 288 287 286 286 285 285 284 284 283 283 283
283 283 284 284 285 285 285 287 287 288 289 289 290 290 289 289 288 288 289 289 289 289 290 289 290 290 290 289 288 287 287 286 285 285 284 284 284 283
286 287 288 286 287 289 290 291 291 291 291 292 292 292 292 292 292 293 293 293 293 294 293 293 293 292 292 292 291 290 289 288 288 288 287 286 286 285
289 290 290 290 290 291 291 292 293 292 293 294 294 294 296 296 296 296 296 296 296 296 296 296 295 294 294 293 293 292 291 291 290 290 289 288 287 286
290 291 291 291 291 292 292 294 294 295 296 298 298 298 298 298 298 298 298 298 298 298 297 297 296 295 295 295 295 295 294 293 293 292 291 290 290 288
292 292 292 292 292 293 293 294 295 297 299 300 300 300 299 300 300 300 300 301 301 300 299 298 297 297 297 297 298 298 297 297 296 295 295 293 292 291
293 293 293 293 294 294 294 295 297 298 300 300 300 300 300 300 300 301 301 302 302 302 301 300 299 299 299 299 299 300 300 300 299 298 297 296 295 294
293 293 294 294 294 295 296 297 298 299 299 300 300 299 300 301 302 302 302 302 302 302 302 302 301 301 301 301 301 302 302 301 301 300 299 298 299 298
294 295 295 296 296 296 296 297 298 298 299 299 299 299 300 301 302 302 302 303 303 303 303 303 304 304 304 304 304 304 303 303 302 301 301 301 301 301
296 296 296 296 296 297 297 298 298 299 299 299 299 300 301 301 301 302 302 303 304 304 304 304 305 306 306 306 306 306 306 305 304 304 304 304 303 302